Wetterdaten: Woche 27.10.08 - 02.11.08 (KW44)
Datum Zeit Temperatur Luftfeuchte Luftdruck Niederschlag Windrichtung Wind
27.10.2008 00:00 5,2 C 95 % 1018,4 hPa 0,0 l/m N 1,2 km/h (1 Bft)
27.10.2008 01:00 4,6 C 96 % 1017,5 hPa 0,0 l/m N 0,5 km/h (0 Bft)
27.10.2008 02:00 4,6 C 97 % 1016,5 hPa 0,0 l/m SW 8,7 km/h (2 Bft)
27.10.2008 03:00 6,9 C 99 % 1015,1 hPa 0,0 l/m SW 18,9 km/h (3 Bft)
27.10.2008 04:00 6,5 C 97 % 1014,0 hPa 0,0 l/m S-SW 13,8 km/h (3 Bft)
27.10.2008 05:00 6,5 C 98 % 1013,2 hPa 0,0 l/m SW 11,8 km/h (2 Bft)
27.10.2008 06:00 7,8 C 94 % 1012,4 hPa 0,0 l/m S-SW 8,7 km/h (2 Bft)
27.10.2008 07:00 7,3 C 94 % 1011,7 hPa 0,0 l/m SW 9,4 km/h (2 Bft)
27.10.2008 08:00 7,3 C 96 % 1011,1 hPa 0,0 l/m S-SW 4,1 km/h (1 Bft)
27.10.2008 09:00 8,3 C 94 % 1010,9 hPa 0,0 l/m SW 6,2 km/h (2 Bft)
27.10.2008 10:00 10,9 C 81 % 1010,8 hPa 0,0 l/m W-SW 18,6 km/h (3 Bft)
27.10.2008 11:00 11,7 C 79 % 1010,5 hPa 0,0 l/m SW 14,9 km/h (3 Bft)
27.10.2008 12:00 11,3 C 83 % 1009,9 hPa 0,0 l/m SW 17,8 km/h (3 Bft)
27.10.2008 13:00 11,3 C 84 % 1009,4 hPa 0,0 l/m SW 12,1 km/h (2 Bft)
27.10.2008 14:00 11,4 C 77 % 1008,9 hPa 0,0 l/m W-SW 12,6 km/h (3 Bft)
27.10.2008 15:00 11,2 C 77 % 1008,5 hPa 0,0 l/m SW 10,3 km/h (2 Bft)
27.10.2008 16:00 10,7 C 80 % 1008,2 hPa 0,0 l/m SW 7,5 km/h (2 Bft)
27.10.2008 17:00 10,5 C 79 % 1007,9 hPa 0,0 l/m W 7,6 km/h (2 Bft)
27.10.2008 18:00 10,2 C 80 % 1008,1 hPa 0,0 l/m SW 6,3 km/h (2 Bft)
27.10.2008 19:00 10,1 C 81 % 1008,3 hPa 0,0 l/m W-SW 9,2 km/h (2 Bft)
27.10.2008 20:00 9,8 C 88 % 1008,5 hPa 1,0 l/m SW 4,9 km/h (1 Bft)
27.10.2008 21:00 8,9 C 93 % 1008,3 hPa 1,6 l/m SW 4,1 km/h (1 Bft)
27.10.2008 22:00 8,5 C 95 % 1007,8 hPa 0,6 l/m SW 8,7 km/h (2 Bft)
27.10.2008 23:00 8,5 C 97 % 1007,3 hPa 1,2 l/m SW 10,6 km/h (2 Bft)
28.10.2008 00:00 8,7 C 98 % 1007,2 hPa 1,2 l/m SW 8,7 km/h (2 Bft)
28.10.2008 01:00 8,6 C 98 % 1006,9 hPa 0,8 l/m SW 10,2 km/h (2 Bft)
28.10.2008 02:00 8,6 C 98 % 1006,8 hPa 1,8 l/m SW 8,4 km/h (2 Bft)
28.10.2008 03:00 8,6 C 98 % 1006,3 hPa 0,4 l/m SW 10,1 km/h (2 Bft)
28.10.2008 04:00 8,3 C 97 % 1006,5 hPa 0,4 l/m SW 11,0 km/h (2 Bft)
28.10.2008 05:00 6,9 C 94 % 1007,1 hPa 0,6 l/m N-NW 12,0 km/h (2 Bft)
28.10.2008 06:00 6,3 C 95 % 1007,8 hPa 1,0 l/m N 9,0 km/h (2 Bft)
28.10.2008 07:00 6,2 C 96 % 1008,2 hPa 0,6 l/m N 3,5 km/h (1 Bft)
28.10.2008 08:00 6,3 C 97 % 1008,9 hPa 0,2 l/m SW 5,8 km/h (1 Bft)
28.10.2008 09:00 6,6 C 96 % 1009,5 hPa 0,0 l/m W 6,1 km/h (2 Bft)
28.10.2008 10:00 7,1 C 95 % 1009,3 hPa 0,2 l/m W 8,7 km/h (2 Bft)
28.10.2008 11:00 7,4 C 93 % 1009,0 hPa 0,0 l/m W 7,0 km/h (2 Bft)
28.10.2008 12:00 7,2 C 92 % 1008,6 hPa 0,0 l/m W-NW 3,6 km/h (1 Bft)
28.10.2008 13:00 7,3 C 92 % 1008,3 hPa 0,0 l/m W 3,1 km/h (1 Bft)
28.10.2008 14:00 7,6 C 90 % 1008,2 hPa 0,0 l/m W-NW 6,1 km/h (2 Bft)
28.10.2008 15:00 7,3 C 92 % 1008,5 hPa 0,2 l/m W-NW 5,7 km/h (1 Bft)
28.10.2008 16:00 6,9 C 92 % 1008,7 hPa 0,0 l/m W-NW 4,5 km/h (1 Bft)
28.10.2008 17:00 6,4 C 93 % 1008,8 hPa 0,4 l/m N 2,0 km/h (1 Bft)
28.10.2008 18:00 6,0 C 94 % 1008,9 hPa 0,0 l/m N 0,1 km/h (0 Bft)
28.10.2008 19:00 5,8 C 95 % 1008,8 hPa 0,0 l/m N 0,0 km/h (0 Bft)
28.10.2008 20:00 5,7 C 96 % 1008,5 hPa 0,0 l/m N 0,0 km/h (0 Bft)
28.10.2008 21:00 5,6 C 96 % 1008,4 hPa 0,6 l/m N 0,4 km/h (0 Bft)
28.10.2008 22:00 5,5 C 97 % 1008,0 hPa 1,0 l/m N 2,1 km/h (1 Bft)
28.10.2008 23:00 5,4 C 97 % 1007,3 hPa 0,4 l/m N 5,9 km/h (2 Bft)
29.10.2008 00:00 5,3 C 96 % 1006,9 hPa 0,2 l/m N 9,1 km/h (2 Bft)
29.10.2008 01:00 5,1 C 96 % 1006,4 hPa 0,6 l/m N-NO 8,2 km/h (2 Bft)
29.10.2008 02:00 4,8 C 97 % 1005,8 hPa 0,0 l/m N-NO 8,6 km/h (2 Bft)
29.10.2008 03:00 4,7 C 97 % 1005,1 hPa 0,4 l/m N 9,8 km/h (2 Bft)
29.10.2008 04:00 4,6 C 97 % 1005,0 hPa 0,6 l/m NO 11,3 km/h (2 Bft)
29.10.2008 05:00 4,7 C 97 % 1005,0 hPa 0,2 l/m N 15,4 km/h (3 Bft)
29.10.2008 06:00 4,6 C 95 % 1005,0 hPa 1,0 l/m NO 16,0 km/h (3 Bft)
29.10.2008 07:00 4,2 C 95 % 1005,8 hPa 0,8 l/m N-NO 15,4 km/h (3 Bft)
29.10.2008 08:00 3,7 C 95 % 1006,4 hPa 0,6 l/m N-NO 13,7 km/h (3 Bft)
29.10.2008 09:00 3,4 C 95 % 1006,1 hPa 0,6 l/m N-NO 16,2 km/h (3 Bft)
29.10.2008 10:00 3,3 C 96 % 1006,2 hPa 1,0 l/m NO 12,9 km/h (3 Bft)
29.10.2008 11:00 3,3 C 95 % 1005,9 hPa 1,6 l/m NO 10,6 km/h (2 Bft)
29.10.2008 12:00 3,2 C 96 % 1005,2 hPa 0,0 l/m O-NO 10,8 km/h (2 Bft)
29.10.2008 13:00 3,4 C 96 % 1004,6 hPa 0,2 l/m N-NO 9,0 km/h (2 Bft)
29.10.2008 14:00 3,3 C 96 % 1004,1 hPa 0,4 l/m N-NO 9,5 km/h (2 Bft)
29.10.2008 15:00 3,3 C 96 % 1003,7 hPa 0,2 l/m N-NO 9,3 km/h (2 Bft)
29.10.2008 16:00 3,1 C 96 % 1003,0 hPa 0,2 l/m N-NO 9,8 km/h (2 Bft)
29.10.2008 17:00 2,8 C 96 % 1002,4 hPa 0,0 l/m NO 9,9 km/h (2 Bft)
29.10.2008 18:00 2,8 C 97 % 1001,9 hPa 0,0 l/m N-NO 9,5 km/h (2 Bft)
29.10.2008 19:00 2,8 C 97 % 1000,6 hPa 0,4 l/m NO 10,7 km/h (2 Bft)
29.10.2008 20:00 2,4 C 95 % 1000,3 hPa 1,8 l/m N-NO 6,0 km/h (2 Bft)
29.10.2008 21:00 1,3 C 95 % 999,5 hPa 1,6 l/m N-NW 4,4 km/h (1 Bft)
29.10.2008 22:00 0,8 C 96 % 999,0 hPa 1,0 l/m N-NW 5,3 km/h (1 Bft)
29.10.2008 23:00 0,7 C 97 % 998,3 hPa 0,6 l/m N 3,1 km/h (1 Bft)
30.10.2008 00:00 0,7 C 98 % 997,3 hPa 0,6 l/m N-NW 2,4 km/h (1 Bft)
30.10.2008 01:00 0,7 C 98 % 996,4 hPa 0,0 l/m N 1,1 km/h (0 Bft)
30.10.2008 02:00 0,8 C 98 % 996,1 hPa 0,0 l/m N 0,0 km/h (0 Bft)
30.10.2008 03:00 0,7 C 98 % 995,9 hPa 0,0 l/m SW 3,5 km/h (1 Bft)
30.10.2008 04:00 0,8 C 98 % 995,7 hPa 0,0 l/m W 4,0 km/h (1 Bft)
30.10.2008 05:00 0,9 C 98 % 995,6 hPa 0,0 l/m W 6,9 km/h (2 Bft)
30.10.2008 06:00 0,8 C 97 % 995,5 hPa 0,0 l/m W-SW 7,2 km/h (2 Bft)
30.10.2008 07:00 0,9 C 97 % 995,9 hPa 0,0 l/m SW 8,9 km/h (2 Bft)
30.10.2008 08:00 0,9 C 97 % 996,2 hPa 0,0 l/m SW 10,7 km/h (2 Bft)
30.10.2008 09:00 1,3 C 96 % 996,7 hPa 0,0 l/m SW 11,2 km/h (2 Bft)
30.10.2008 10:00 1,4 C 96 % 997,2 hPa 0,0 l/m W-SW 14,1 km/h (3 Bft)
30.10.2008 11:00 1,8 C 96 % 997,6 hPa 0,0 l/m SW 18,4 km/h (3 Bft)
30.10.2008 12:00 2,6 C 94 % 997,9 hPa 0,0 l/m SW 15,6 km/h (3 Bft)
30.10.2008 13:00 2,7 C 93 % 998,6 hPa 0,0 l/m W 16,5 km/h (3 Bft)
30.10.2008 14:00 2,8 C 93 % 998,8 hPa 0,0 l/m SW 10,7 km/h (2 Bft)
30.10.2008 15:00 3,1 C 92 % 998,9 hPa 0,0 l/m SW 10,5 km/h (2 Bft)
30.10.2008 16:00 3,1 C 91 % 998,7 hPa 0,0 l/m SW 5,5 km/h (1 Bft)
30.10.2008 17:00 2,5 C 92 % 999,0 hPa 0,0 l/m W-NW 1,2 km/h (1 Bft)
30.10.2008 18:00 1,6 C 95 % 999,6 hPa 0,0 l/m W-NW 3,1 km/h (1 Bft)
30.10.2008 19:00 1,2 C 95 % 999,8 hPa 0,0 l/m N-NW 2,1 km/h (1 Bft)
30.10.2008 20:00 0,7 C 96 % 1000,2 hPa 0,0 l/m N-NW 2,7 km/h (1 Bft)
30.10.2008 21:00 0,7 C 97 % 1000,4 hPa 0,0 l/m N-NW 4,5 km/h (1 Bft)
30.10.2008 22:00 0,5 C 97 % 1001,0 hPa 0,0 l/m N-NW 5,9 km/h (2 Bft)
30.10.2008 23:00 0,3 C 97 % 1001,8 hPa 0,0 l/m NW 4,7 km/h (1 Bft)
31.10.2008 00:00 0,2 C 97 % 1002,5 hPa 0,0 l/m N-NW 3,5 km/h (1 Bft)
31.10.2008 01:00 0,2 C 97 % 1002,9 hPa 0,0 l/m N 1,3 km/h (1 Bft)
31.10.2008 02:00 0,1 C 97 % 1003,2 hPa 0,0 l/m N-NO 2,8 km/h (1 Bft)
31.10.2008 03:00 -0,3 C 98 % 1003,8 hPa 0,0 l/m N-NW 6,4 km/h (2 Bft)
31.10.2008 04:00 -0,4 C 98 % 1004,4 hPa 0,0 l/m N 2,9 km/h (1 Bft)
31.10.2008 05:00 -0,6 C 98 % 1004,8 hPa 0,0 l/m W-NW 3,3 km/h (1 Bft)
31.10.2008 06:00 -0,7 C 98 % 1005,2 hPa 0,0 l/m N-NO 3,2 km/h (1 Bft)
31.10.2008 07:00 -0,7 C 98 % 1005,9 hPa 0,0 l/m NW 3,6 km/h (1 Bft)
31.10.2008 08:00 -0,6 C 98 % 1006,2 hPa 0,0 l/m NO 3,5 km/h (1 Bft)
31.10.2008 09:00 -0,3 C 98 % 1006,4 hPa 0,0 l/m N-NO 4,8 km/h (1 Bft)
31.10.2008 10:00 0,1 C 99 % 1007,0 hPa 0,0 l/m O-NO 3,7 km/h (1 Bft)
31.10.2008 11:00 0,6 C 99 % 1008,0 hPa 0,0 l/m N-NW 9,0 km/h (2 Bft)
31.10.2008 12:00 1,3 C 98 % 1008,3 hPa 0,0 l/m N-NW 5,9 km/h (2 Bft)
31.10.2008 13:00 2,3 C 96 % 1008,3 hPa 0,0 l/m O-NO 4,3 km/h (1 Bft)
31.10.2008 14:00 3,3 C 93 % 1008,0 hPa 0,0 l/m SO 5,3 km/h (1 Bft)
31.10.2008 15:00 3,7 C 93 % 1008,1 hPa 0,0 l/m O 3,5 km/h (1 Bft)
31.10.2008 16:00 3,7 C 94 % 1007,9 hPa 0,0 l/m N-NO 4,7 km/h (1 Bft)
31.10.2008 17:00 3,5 C 95 % 1007,7 hPa 0,0 l/m N-NO 6,4 km/h (2 Bft)
31.10.2008 18:00 3,1 C 96 % 1008,1 hPa 0,0 l/m N-NO 9,4 km/h (2 Bft)
31.10.2008 19:00 2,8 C 96 % 1007,7 hPa 0,0 l/m N-NO 8,2 km/h (2 Bft)
31.10.2008 20:00 2,6 C 96 % 1007,6 hPa 0,0 l/m N-NO 6,4 km/h (2 Bft)
31.10.2008 21:00 2,5 C 96 % 1007,5 hPa 0,0 l/m NO 9,2 km/h (2 Bft)
31.10.2008 22:00 2,4 C 97 % 1006,9 hPa 0,0 l/m O-NO 10,9 km/h (2 Bft)
31.10.2008 23:00 2,3 C 98 % 1006,3 hPa 0,0 l/m NO 11,0 km/h (2 Bft)
01.11.2008 00:00 2,3 C 98 % 1005,8 hPa 0,0 l/m NO 7,6 km/h (2 Bft)
01.11.2008 01:00 2,2 C 98 % 1005,7 hPa 0,0 l/m NO 9,3 km/h (2 Bft)
01.11.2008 02:00 2,2 C 99 % 1005,6 hPa 0,0 l/m NO 8,4 km/h (2 Bft)
01.11.2008 03:00 2,2 C 99 % 1005,0 hPa 0,0 l/m N-NO 5,2 km/h (1 Bft)
01.11.2008 04:00 2,0 C 99 % 1004,9 hPa 0,0 l/m N-NO 7,2 km/h (2 Bft)
01.11.2008 05:00 1,8 C 99 % 1005,3 hPa 0,0 l/m N-NO 7,8 km/h (2 Bft)
01.11.2008 06:00 1,8 C 99 % 1005,7 hPa 0,0 l/m N 5,7 km/h (1 Bft)
01.11.2008 07:00 1,6 C 99 % 1006,1 hPa 0,0 l/m NW 4,0 km/h (1 Bft)
01.11.2008 08:00 1,7 C 99 % 1006,2 hPa 0,0 l/m N 3,7 km/h (1 Bft)
01.11.2008 09:00 2,1 C 99 % 1006,6 hPa 0,0 l/m N 3,5 km/h (1 Bft)
01.11.2008 10:00 3,0 C 99 % 1007,2 hPa 0,0 l/m W-SW 2,9 km/h (1 Bft)
01.11.2008 11:00 4,1 C 98 % 1007,4 hPa 0,0 l/m S-SW 5,7 km/h (1 Bft)
01.11.2008 12:00 5,0 C 96 % 1007,1 hPa 0,0 l/m S 4,5 km/h (1 Bft)
01.11.2008 13:00 5,7 C 93 % 1006,8 hPa 0,0 l/m O 4,7 km/h (1 Bft)
01.11.2008 14:00 5,6 C 94 % 1006,8 hPa 0,0 l/m SO 3,7 km/h (1 Bft)
01.11.2008 15:00 6,6 C 93 % 1007,2 hPa 0,0 l/m S-SO 2,9 km/h (1 Bft)
01.11.2008 16:00 6,6 C 93 % 1007,4 hPa 0,0 l/m SW 3,1 km/h (1 Bft)
01.11.2008 17:00 5,7 C 95 % 1008,2 hPa 0,0 l/m SW 3,7 km/h (1 Bft)
01.11.2008 18:00 5,0 C 97 % 1009,1 hPa 0,0 l/m N 1,3 km/h (1 Bft)
01.11.2008 19:00 5,0 C 98 % 1009,7 hPa 0,0 l/m S-SW 2,7 km/h (1 Bft)
01.11.2008 20:00 4,7 C 98 % 1010,3 hPa 0,0 l/m S-SW 8,0 km/h (2 Bft)
01.11.2008 21:00 4,4 C 98 % 1011,3 hPa 0,0 l/m S-SW 5,2 km/h (1 Bft)
01.11.2008 22:00 4,2 C 98 % 1012,0 hPa 0,0 l/m SW 8,3 km/h (2 Bft)
01.11.2008 23:00 3,9 C 98 % 1012,8 hPa 0,0 l/m SW 8,2 km/h (2 Bft)
02.11.2008 00:00 3,6 C 99 % 1014,0 hPa 0,0 l/m SW 9,3 km/h (2 Bft)
02.11.2008 01:00 3,4 C 99 % 1014,9 hPa 0,0 l/m S-SW 6,6 km/h (2 Bft)
02.11.2008 02:00 3,2 C 99 % 1015,5 hPa 0,0 l/m SW 5,5 km/h (1 Bft)
02.11.2008 03:00 2,9 C 99 % 1015,8 hPa 0,0 l/m S-SW 8,3 km/h (2 Bft)
02.11.2008 04:00 3,2 C 99 % 1016,3 hPa 0,0 l/m SW 9,0 km/h (2 Bft)
02.11.2008 05:00 3,1 C 99 % 1016,7 hPa 0,0 l/m SW 5,1 km/h (1 Bft)
02.11.2008 06:00 3,0 C 99 % 1017,1 hPa 0,0 l/m S-SW 4,9 km/h (1 Bft)
02.11.2008 07:00 2,8 C 99 % 1017,0 hPa 0,0 l/m N 1,1 km/h (0 Bft)
02.11.2008 08:00 2,7 C 99 % 1017,3 hPa 0,0 l/m NO 2,8 km/h (1 Bft)
02.11.2008 09:00 3,5 C 99 % 1017,0 hPa 0,0 l/m NO 2,5 km/h (1 Bft)
02.11.2008 10:00 6,7 C 95 % 1016,5 hPa 0,0 l/m N-NO 6,0 km/h (2 Bft)
02.11.2008 11:00 8,5 C 93 % 1016,1 hPa 0,0 l/m N 7,3 km/h (2 Bft)
02.11.2008 12:00 9,4 C 91 % 1015,1 hPa 0,0 l/m N-NO 8,3 km/h (2 Bft)
02.11.2008 13:00 10,5 C 87 % 1014,6 hPa 0,0 l/m N-NO 7,9 km/h (2 Bft)
02.11.2008 14:00 10,2 C 89 % 1014,3 hPa 0,0 l/m N-NO 9,6 km/h (2 Bft)
02.11.2008 15:00 9,9 C 91 % 1013,7 hPa 0,0 l/m NO 8,4 km/h (2 Bft)
02.11.2008 16:00 9,3 C 92 % 1013,2 hPa 0,0 l/m N-NO 9,0 km/h (2 Bft)
02.11.2008 17:00 8,4 C 95 % 1012,9 hPa 0,0 l/m NO 10,2 km/h (2 Bft)
02.11.2008 18:00 7,8 C 97 % 1013,0 hPa 0,0 l/m NO 9,5 km/h (2 Bft)
02.11.2008 19:00 7,6 C 98 % 1012,9 hPa 0,0 l/m N-NO 8,3 km/h (2 Bft)
02.11.2008 20:00 7,6 C 99 % 1012,5 hPa 0,0 l/m N-NO 9,0 km/h (2 Bft)
02.11.2008 21:00 7,8 C 99 % 1012,1 hPa 0,0 l/m O-NO 8,2 km/h (2 Bft)
02.11.2008 22:00 8,0 C 99 % 1011,8 hPa 0,0 l/m NO 10,5 km/h (2 Bft)
02.11.2008 23:00 8,0 C 99 % 1011,3 hPa 0,0 l/m NO 9,3 km/h (2 Bft)
Min-Datum _ 31.10.08 27.10.08 30.10.08 - - 27.10.08
_ Min-Zeit 05:50 11:05 06:25 - - 00:05
Minimum _ -0,7 C 74 % 995,3 hPa - - 0,0 km/h (0 Bft)
Max-Datum _ 27.10.08 01.11.08 27.10.08 28.10.08 - 27.10.08
_ Max-Zeit 11:10 09:15 00:00 02:00 - 03:15
Maximum _ 12,1 C 100 % 1018,7 hPa 1,8 l/m - 24,1 km/h
SW (4 Bft)
Durchschnitt _ 4,5 C 95 % 1007,1 hPa #28,8 l/m SW 7,2 km/h (2 Bft)